"2010-10-09 00:00:00",230701,10.56,337.1,5.559,1.339,15.71,104.7377,11.4,12.57,33.54,0,110.3,13.32,12.19,299.1
"2010-10-09 00:00:30",230702,11.32,339.4,6.023,0.976,16.27,104.7377,11.4,12.61,33.5,0,110.3,13.32,12.19,301.4
"2010-10-09 00:01:00",230703,10.22,342.5,4.533,0.899,15.15,104.7377,11.4,12.55,34.08,0,110.3,13.32,12.19,304.5
"2010-10-09 00:01:30",230704,9.77,338.7,8.83,1.53,12.92,104.7377,11.4,12.34,34.19,0,110.3,13.32,12.19,300.7
"2010-10-09 00:02:00",230705,8.95,328,3.168,0.449,10.82,104.7377,11.4,12.29,34,0,110.3,13.35,12.19,290.0
"2010-10-09 00:02:30",230706,8.84,332.6,3.098,0.523,11.22,104.7377,11.4,12.3,33.75,0,110.3,13.35,12.19,294.6
"2010-10-09 00:03:00",230707,9.11,334.1,7.952,0.803,12.63,104.7377,11.4,12.45,33.12,0,110.3,13.32,12.19,296.1
"2010-10-09 00:03:30",230708,9.92,334.5,9.91,0.766,13.53,104.7377,11.4,12.34,33.02,0,110.3,13.32,12.19,296.5
"2010-10-09 00:04:00",230709,9.79,338.4,7.136,1.172,15.65,104.7377,11.4,12.63,33.38,0,110.3,13.32,12.19,300.4
"2010-10-09 00:04:30",230710,9.36,340.2,6.287,0.911,16.3,104.7377,11.4,12.64,33.72,0,110.3,13.32,12.19,302.2
"2010-10-09 00:05:00",230711,9.86,335.6,9.02,0.922,13.28,104.7377,11.4,12.39,33.45,0,110.3,13.31,12.19,297.6
"2010-10-09 00:05:30",230712,8.53,341.9,5.24,0.784,11,104.7377,11.4,12.29,33.16,0,110.3,13.35,12.19,303.9
"2010-10-09 00:06:00",230713,8.65,335,4.49,0.358,11.08,104.7377,11.4,12.3,33.47,0,110.3,13.35,12.19,297.0
"2010-10-09 00:06:30",230714,8.25,334.5,5.397,0.705,11.55,104.7377,11.4,12.37,33.78,0,110.4,13.35,12.19,296.5
"2010-10-09 00:07:00",230715,12,334.8,5.852,1.503,14.91,104.7377,11.4,12.46,33.48,0,110.3,13.31,12.19,296.8
"2010-10-09 00:07:30",230716,12.5,338.5,5.361,0.934,16.59,104.7377,11.4,12.55,32.8,0,110.3,13.31,12.19,300.5
"2010-10-09 00:08:00",230717,12.66,343.1,5.367,1.003,16.59,104.7654,11.47,12.65,32.79,0,110.4,13.31,12.26,305.1
"2010-10-09 00:08:30",230718,11.98,338.6,8.1,1.375,14.27,104.7716,11.49,12.57,33.02,0,110.4,13.32,12.28,300.6
"2010-10-09 00:09:00",230719,11.87,331.7,5.684,1.014,12.75,104.7716,11.49,12.39,32.68,0,110.4,13.32,12.28,293.7
"2010-10-09 00:09:30",230720,10.99,330,1.834,0.346,11.34,104.7716,11.49,12.36,32.31,0,110.4,13.35,12.28,292.0
"2010-10-09 00:10:00",230721,11.01,329,5.774,1.282,12.85,104.7738,11.49,12.39,32.08,0,110.4,13.32,12.29,291.0
"2010-10-09 00:10:30",230722,11.34,330.9,7.089,1.174,14.18,104.7984,11.56,12.5,31.83,0,110.4,13.32,12.35,292.9
"2010-10-09 00:11:00",230723,12.11,335.9,6.647,1.158,15.93,104.8054,11.57,12.72,32.06,0,110.4,13.32,12.37,297.9
"2010-10-09 00:11:30",230724,12.01,341.6,4.966,0.989,16.61,104.8054,11.57,12.73,32.34,0,110.4,13.32,12.37,303.6
"2010-10-09 00:12:00",230725,10.85,332.6,6.533,1.517,14.41,104.8054,11.57,12.62,32.29,0,110.4,13.32,12.37,294.6
"2010-10-09 00:12:30",230726,9.48,327.5,4.406,0.746,11.99,104.8054,11.57,12.6,32.26,0,110.4,13.34,12.37,289.5
"2010-10-09 00:13:00",230727,9.72,323.1,1.257,0.266,11.53,104.8054,11.57,12.46,32.04,0,110.4,13.35,12.37,285.1
"2010-10-09 00:13:30",230728,10.94,330.7,4.708,1.031,13.62,104.8054,11.57,12.53,32.24,0,110.4,13.32,12.37,292.7
"2010-10-09 00:14:00",230729,11.45,336,7.769,1.207,15.48,104.8054,11.57,12.66,32.22,0,110.4,13.32,12.37,298.0
"2010-10-09 00:14:30",230730,12.23,342.6,6.05,1.024,16.42,104.8054,11.57,12.8,32.68,0,110.4,13.32,12.37,304.6
"2010-10-09 00:15:00",230731,11.84,342.7,5.967,1.196,15.66,104.8054,11.57,12.73,32.38,0,110.3,13.32,12.37,304.7
"2010-10-09 00:15:30",230732,11.51,345.7,7.312,1.395,13.88,104.8054,11.57,12.59,32.15,0,110.4,13.32,12.37,307.7
"2010-10-09 00:16:00",230733,9.6,336.2,2.278,0.261,11.39,104.8054,11.57,12.53,32.49,0,110.4,13.35,12.37,298.2
"2010-10-09 00:16:30",230734,9.73,335,2.555,0.592,11.59,104.8054,11.57,12.46,32.48,0,110.4,13.35,12.37,297.0
"2010-10-09 00:17:00",230735,11.32,336.2,5.803,0.957,13.17,104.8054,11.57,12.55,32.13,0,110.3,13.32,12.37,298.2
"2010-10-09 00:17:30",230736,12.74,342.5,6.52,1.38,16.1,104.8054,11.57,12.72,32.03,0,110.4,13.32,12.37,304.5
"2010-10-09 00:18:00",230737,13.49,347.1,4.394,0.902,16.85,104.8054,11.57,12.73,31.73,0,110.4,13.32,12.37,309.1
"2010-10-09 00:18:30",230738,12.93,341.9,7.769,1.192,15.35,104.8153,11.6,12.75,31.03,0,110.4,13.32,12.39,303.9
"2010-10-09 00:19:00",230739,11.34,338.9,6.006,1.229,13.37,104.8392,11.66,12.59,30.35,0,110.4,13.32,12.45,300.9
"2010-10-09 00:19:30",230740,10.32,336.2,2.84,0.422,11.93,104.8421,11.67,12.64,30.84,0,110.4,13.35,12.46,298.2
"2010-10-09 00:20:00",230741,10.06,332.4,1.5,0.279,11.72,104.868,11.73,12.56,30.69,0,110.4,13.35,12.53,294.4
"2010-10-09 00:20:30",230742,11.37,334.8,6.793,1.381,14.49,104.8731,11.75,12.71,30.64,0,110.3,13.32,12.54,296.8
"2010-10-09 00:21:00",230743,11.33,336,6.943,1.491,15.3,104.8731,11.75,12.79,30.62,0,110.3,13.32,12.54,298.0
"2010-10-09 00:21:30",230744,12.3,335.3,5.174,1.332,16.27,104.8731,11.75,12.85,30.48,0,110.3,13.32,12.54,297.3
"2010-10-09 00:22:00",230745,12.74,334.4,6.438,1.099,15.74,104.8731,11.75,12.92,30.44,0,110.3,13.32,12.54,296.4
"2010-10-09 00:22:30",230746,11.42,332.1,7.391,1.375,14.47,104.8765,11.76,12.86,30.34,0,110.3,13.32,12.55,294.1
"2010-10-09 00:23:00",230747,11.13,326.5,7.708,1.366,13.12,104.8923,11.8,12.65,29.72,0,110.3,13.31,12.59,288.5
"2010-10-09 00:23:30",230748,10.16,330,7.992,1.045,13.67,104.905,11.83,12.72,29.95,0,110.3,13.32,12.62,292.0
"2010-10-09 00:24:00",230749,9.48,328.8,5.065,0.959,12.91,104.9069,11.83,12.8,30.27,0,110.4,13.32,12.63,290.8
"2010-10-09 00:24:30",230750,10.03,340.9,6.365,1.306,15.81,104.9069,11.83,12.77,30.04,0,110.3,13.31,12.63,302.9
"2010-10-09 00:25:00",230751,8.94,340.9,7.231,1.36,15.82,104.9072,11.83,12.97,29.99,0,110.3,13.32,12.63,302.9
"2010-10-09 00:25:30",230752,7.715,338.8,5.088,1.014,13.72,104.9078,11.84,12.92,29.13,0,110.3,13.32,12.63,300.8
"2010-10-09 00:26:00",230753,8.98,341.6,7.095,1.463,14.9,104.936,11.91,12.99,29.76,0,110.3,13.32,12.70,303.6
"2010-10-09 00:26:30",230754,8.98,335.3,4.224,0.939,12.27,104.9408,11.92,12.84,29.1,0,110.3,13.32,12.71,297.3
"2010-10-09 00:27:00",230755,8.22,335.7,4.396,0.422,12.35,104.9411,11.92,12.81,29.05,0,110.3,13.36,12.72,297.7
"2010-10-09 00:27:30",230756,9.32,339.8,4.222,0.891,12.81,104.9414,11.92,12.89,29.21,0,110.3,13.32,12.72,301.8
"2010-10-09 00:28:00",230757,10.5,345.8,6.318,1.074,16.07,104.9434,11.93,13.07,29.79,0,110.3,13.33,12.72,307.8
"2010-10-09 00:28:30",230758,10.11,346.6,6.737,1.221,16.19,104.9446,11.93,13.08,30.03,0,110.3,13.33,12.72,308.6
"2010-10-09 00:29:00",230759,10.67,348.8,6.464,1.141,15.55,104.944,11.93,12.96,29.69,0,110.3,13.33,12.72,310.8
"2010-10-09 00:29:30",230760,9.03,337.2,4.37,0.379,11.97,104.9444,11.93,12.85,29.54,0,110.3,13.36,12.72,299.2
"2010-10-09 00:30:00",230761,10.84,339.5,8.17,1.039,13.98,104.9354,11.91,12.97,29.69,0,110.3,13.33,12.70,301.5
"2010-10-09 00:30:30",230762,9.94,335.2,5.243,1.202,12.46,104.922,11.87,12.81,29.69,0,110.3,13.33,12.67,297.2
"2010-10-09 00:31:00",230763,10.37,343.1,7.948,1.492,15.25,104.9158,11.86,12.94,29.51,0,110.3,13.33,12.65,305.1
"2010-10-09 00:31:30",230764,9.39,344.5,7.458,1.412,15.33,104.9185,11.86,13.02,30.28,0,110.3,13.33,12.66,306.5
"2010-10-09 00:32:00",230765,9.67,347.7,5.697,1.23,16.1,104.9211,11.87,12.94,30.32,0,110.3,13.33,12.66,309.7
"2010-10-09 00:32:30",230766,8.79,341.4,7.329,0.858,12.88,104.9208,11.87,12.91,29.9,0,110.3,13.33,12.66,303.4
"2010-10-09 00:33:00",230767,9.8,349,6.283,1.876,13.88,104.9217,11.87,12.77,29.53,0,110.3,13.33,12.67,311.0
"2010-10-09 00:33:30",230768,8.47,344.9,4.054,0.809,12.05,104.922,11.87,12.75,29.87,0,110.3,13.36,12.67,306.9
"2010-10-09 00:34:00",230769,11.59,347.1,5.853,1.608,15.62,104.9223,11.87,12.94,29.7,0,110.3,13.33,12.67,309.1
"2010-10-09 00:34:30",230770,11.29,349.4,6.018,1.351,15.76,104.9247,11.88,13,29.87,0,110.3,13.33,12.67,311.4
"2010-10-09 00:35:00",230771,11.32,342.9,5.906,1.34,15.08,104.9268,11.88,13,29.67,0,110.3,13.33,12.68,304.9
"2010-10-09 00:35:30",230772,9.95,340.3,7.276,1.295,13.78,104.9276,11.89,12.78,29.32,0,110.3,13.33,12.68,302.3
"2010-10-09 00:36:00",230773,10.27,340.4,6.391,1.4,14.43,104.9303,11.89,12.92,29.71,0,110.3,13.33,12.69,302.4
"2010-10-09 00:36:30",230774,9.26,335.5,4.411,0.59,12.68,104.9321,11.9,12.9,29.65,0,110.3,13.33,12.69,297.5
"2010-10-09 00:37:00",230775,10.03,340.3,7.796,1.159,13.49,104.9324,11.9,12.78,29.48,0,110.3,13.33,12.69,302.3
"2010-10-09 00:37:30",230776,8.86,335.3,5.345,0.713,13.27,104.9345,11.9,12.91,29.64,0,110.3,13.33,12.70,297.3
"2010-10-09 00:38:00",230777,10.23,346.4,4.541,1.139,16.5,104.9359,11.91,13.04,29.95,0,110.3,13.32,12.70,308.4
"2010-10-09 00:38:30",230778,9.94,343.7,7.699,1.407,15.04,104.9345,11.9,12.98,29.66,0,110.3,13.32,12.70,305.7
"2010-10-09 00:39:00",230779,7.956,332,3.86,0.208,12.04,104.9377,11.91,12.79,29.6,0,110.3,13.36,12.71,294.0
"2010-10-09 00:39:30",230780,8.77,336.9,7.553,1.265,13.73,104.9365,11.91,12.78,29.74,0,110.3,13.32,12.70,298.9
"2010-10-09 00:40:00",230781,8.53,337.9,8.32,1.095,14.12,104.9395,11.92,12.92,30.04,0,110.3,13.33,12.71,299.9
"2010-10-09 00:40:30",230782,7.377,336.3,4.824,0.788,12.4,104.9331,11.9,12.74,30.01,0,110.3,13.32,12.69,298.3
"2010-10-09 00:41:00",230783,7.555,334.8,2.992,0.468,12.23,104.9282,11.89,12.74,29.91,0,110.3,13.33,12.68,296.8
"2010-10-09 00:41:30",230784,9.34,342.4,5.084,1.389,15.24,104.9162,11.86,13.04,30.48,0,110.3,13.33,12.65,304.4
"2010-10-09 00:42:00",230785,9.97,344.7,7.451,1.245,16.18,104.908,11.84,13,30.71,0,110.3,13.33,12.63,306.7
"2010-10-09 00:42:30",230786,9,338.8,7.654,1.366,13.56,104.9077,11.84,12.78,30.43,0,110.3,13.33,12.63,300.8
"2010-10-09 00:43:00",230787,8.72,337,7.248,1.21,13.27,104.9086,11.84,12.79,30.46,0,110.3,13.33,12.63,299.0
"2010-10-09 00:43:30",230788,8.63,339.7,5.22,1.04,12.87,104.9069,11.83,12.76,30.57,0,110.3,13.33,12.63,301.7
"2010-10-09 00:44:00",230789,8.97,344.6,7.377,1.43,14.19,104.8874,11.78,12.78,30.64,0,110.3,13.33,12.58,306.6
"2010-10-09 00:44:30",230790,8.12,340.3,1.727,0.565,12.18,104.8753,11.75,12.67,30.7,0,110.3,13.33,12.55,302.3
"2010-10-09 00:45:00",230791,9.88,351.6,7.595,1.159,15.52,104.8747,11.75,12.86,31.12,0,110.3,13.33,12.54,313.6
"2010-10-09 00:45:30",230792,10.02,356.4,5.593,1.012,16.29,104.8747,11.75,12.94,31.1,0,110.3,13.34,12.54,318.4
"2010-10-09 00:46:00",230793,7.922,355.3,6.993,1.602,13.65,104.8747,11.75,12.77,30.86,0,110.3,13.34,12.54,317.3
"2010-10-09 00:46:30",230794,5.144,354.1,2.65,0.541,11.6,104.8747,11.75,12.63,30.83,0,110.3,13.37,12.54,316.1
"2010-10-09 00:47:00",230795,4.28,358.5,3.98,0.584,11.96,104.8747,11.75,12.72,31.09,0,110.3,13.37,12.54,320.5
"2010-10-09 00:47:30",230796,5.58,1.77,6.961,1.193,13.98,104.8736,11.75,12.67,31.15,0,110.3,13.34,12.54,323.8
"2010-10-09 00:48:00",230797,5.26,1.844,6.435,1.227,13.76,104.8573,11.71,12.73,31.3,0,110.3,13.34,12.50,323.8
"2010-10-09 00:48:30",230798,3.938,358,4.464,0.712,12.06,104.8423,11.67,12.59,31.24,0,110.3,13.38,12.46,320.0
"2010-10-09 00:49:00",230799,5.017,14.83,10.86,1.047,15.02,104.8409,11.67,12.8,31.63,0,110.3,13.34,12.46,336.8
"2010-10-09 00:49:30",230800,6.899,29.37,5.371,1.294,16.26,104.8409,11.67,12.88,31.45,0,110.3,13.34,12.46,351.4
"2010-10-09 00:50:00",230801,6.526,26.39,6.804,1.343,14.24,104.8409,11.67,12.73,31,0,110.3,13.34,12.46,348.4
"2010-10-09 00:50:30",230802,5.101,21.22,2.94,0.266,11.63,104.8451,11.68,12.56,30.85,0,110.3,13.38,12.47,343.2
"2010-10-09 00:51:00",230803,5.254,31.68,4.591,0.459,11.73,104.8685,11.74,12.59,30.64,0,110.3,13.38,12.53,353.7
"2010-10-09 00:51:30",230804,7.162,41.96,6.691,1.32,14.6,104.8747,11.75,12.71,30.55,0,110.3,13.34,12.54,4.0
"2010-10-09 00:52:00",230805,6.845,43.53,9.78,1.541,14.79,104.875,11.75,12.78,30.12,0,110.3,13.34,12.55,5.5
"2010-10-09 00:52:30",230806,7.65,45.02,6.841,1.326,14.46,104.8756,11.75,12.75,30.84,0,110.3,13.34,12.55,7.0
"2010-10-09 00:53:00",230807,6.755,44.23,8.57,1.328,14.21,104.8747,11.75,12.8,31.11,0,110.3,13.34,12.54,6.2
"2010-10-09 00:53:30",230808,6.187,42.03,5.835,1.26,15.41,104.8747,11.75,12.82,31.18,0,110.3,13.34,12.54,4.0
"2010-10-09 00:54:00",230809,4.826,33.92,6.527,1.428,13.38,104.8747,11.75,12.76,31.2,0,110.3,13.33,12.54,355.9
"2010-10-09 00:54:30",230810,3.636,25.06,3.21,0.298,11.55,104.8747,11.75,12.6,31.08,0,110.3,13.37,12.54,347.1
"2010-10-09 00:55:00",230811,4.59,29.63,1.909,0.4,11.62,104.8725,11.75,12.6,31.18,0,110.3,13.37,12.54,351.6
"2010-10-09 00:55:30",230812,5.597,30.59,7.653,1.317,14.31,104.8595,11.71,12.66,31.34,0,110.3,13.33,12.51,352.6
"2010-10-09 00:56:00",230813,4.387,24.81,5.209,0.982,14.74,104.8415,11.67,12.75,31.44,0,110.3,13.33,12.46,346.8
"2010-10-09 00:56:30",230814,4.954,32.54,7.389,1.306,14.99,104.8409,11.67,12.71,31.41,0,110.3,13.33,12.46,354.5
"2010-10-09 00:57:00",230815,3.847,38.88,7.681,0.695,12.26,104.8409,11.67,12.68,31.4,0,110.3,13.34,12.46,0.9
"2010-10-09 00:57:30",230816,3.939,33.04,7.292,1.322,13.76,104.8409,11.67,12.73,31.5,0,110.3,13.33,12.46,355.0
"2010-10-09 00:58:00",230817,4.148,31.65,8.09,1.357,12.89,104.8409,11.67,12.66,31.52,0,110.3,13.34,12.46,353.6
"2010-10-09 00:58:30",230818,4.722,38.69,8.42,1.64,13.56,104.8409,11.67,12.72,31.53,0,110.3,13.34,12.46,0.7
"2010-10-09 00:59:00",230819,4.425,44.46,3.576,0.718,12.03,104.8409,11.67,12.55,31.34,0,110.3,13.34,12.46,6.5
"2010-10-09 00:59:30",230820,3.951,46.6,1.384,0.161,11.88,104.8409,11.67,12.55,31.27,0,110.3,13.38,12.46,8.6
"2010-10-09 01:00:00",230821,5.292,53.73,6.396,1.24,14.71,104.8409,11.67,12.71,31.28,0,110.3,13.34,12.46,15.7
"2010-10-09 01:00:30",230822,4.832,44.46,6.52,1.272,13.55,104.8423,11.67,12.7,31.05,0,110.3,13.34,12.46,6.5
"2010-10-09 01:01:00",230823,6.248,48.11,6.556,1.322,14.92,104.8699,11.74,12.7,30.33,0,110.3,13.34,12.53,10.1
"2010-10-09 01:01:30",230824,5.079,41.25,7.717,1.227,13.34,104.8747,11.75,12.73,30.21,0,110.3,13.34,12.54,3.2
"2010-10-09 01:02:00",230825,5.299,43.6,8.06,1.415,14.19,104.9001,11.82,12.82,29.94,0,110.3,13.34,12.61,5.6
"2010-10-09 01:02:30",230826,4.961,41.05,5.083,1.19,14.05,104.9086,11.84,12.75,29.95,0,110.2,13.34,12.63,3.0
"2010-10-09 01:03:00",230827,4.596,46.18,6.48,1.142,13.42,104.9086,11.84,12.86,30.84,0,110.3,13.35,12.63,8.2
"2010-10-09 01:03:30",230828,3.862,36.14,3.066,0.414,11.89,104.9086,11.84,12.66,30.58,0,110.2,13.38,12.63,358.1
"2010-10-09 01:04:00",230829,3.859,30.73,3.081,0.721,12.17,104.9086,11.84,12.68,30.25,0,110.2,13.35,12.63,352.7
"2010-10-09 01:04:30",230830,4.978,36.29,8.11,1.344,13.74,104.9086,11.84,12.84,30.37,0,110.3,13.35,12.63,358.3
"2010-10-09 01:05:00",230831,6.429,47.85,7.393,1.399,15.74,104.9083,11.84,12.93,30.43,0,110.2,13.35,12.63,9.8
"2010-10-09 01:05:30",230832,3.884,36.12,5.306,0.964,14,104.9083,11.84,12.89,30.35,0,110.2,13.35,12.63,358.1
"2010-10-09 01:06:00",230833,3.849,34.14,9.75,1.473,13.29,104.9083,11.84,12.74,30.34,0,110.3,13.35,12.63,356.1
"2010-10-09 01:06:30",230834,3.824,28.51,7.166,1.05,13.77,104.9047,11.83,12.79,30.53,0,110.3,13.35,12.62,350.5
"2010-10-09 01:07:00",230835,3.804,30.95,5.916,1.268,13.56,104.881,11.77,12.85,30.95,0,110.2,13.35,12.56,353.0
"2010-10-09 01:07:30",230836,2.728,26.59,3.95,0.544,11.94,104.8747,11.75,12.77,31.02,0,110.2,13.35,12.54,348.6
"2010-10-09 01:08:00",230837,2.646,29.2,4.199,0.716,11.98,104.8745,11.75,12.66,30.96,0,110.2,13.35,12.54,351.2
"2010-10-09 01:08:30",230838,2.518,26.67,4.577,0.392,11.83,104.8672,11.73,12.64,30.83,0,110.2,13.39,12.53,348.7
"2010-10-09 01:09:00",230839,3.082,23.97,2.561,0.315,12.16,104.8511,11.69,12.62,30.94,0,110.2,13.35,12.48,346.0
"2010-10-09 01:09:30",230840,3.91,30.78,7.627,1.226,14.97,104.8415,11.67,12.86,31.29,0,110.2,13.35,12.46,352.8
"2010-10-09 01:10:00",230841,4.418,21.84,8.01,1.104,16.06,104.8421,11.67,12.81,31.27,0,110.2,13.35,12.46,343.8
"2010-10-09 01:10:30",230842,3.241,11,5.072,1.215,13.85,104.843,11.67,12.75,31.13,0,110.2,13.34,12.46,333.0
"2010-10-09 01:11:00",230843,2.334,8.06,9.9,1.123,12.42,104.8433,11.67,12.72,31.22,0,110.2,13.34,12.46,330.1
"2010-10-09 01:11:30",230844,2.221,357.7,9.92,1.032,11.18,104.8456,11.68,12.58,30.87,0,110.2,13.38,12.47,319.7
"2010-10-09 01:12:00",230845,3.187,0.349,11.15,0.785,11.22,104.8483,11.68,12.57,30.8,0,110.2,13.38,12.48,322.3
"2010-10-09 01:12:30",230846,3.579,14.58,6.569,0.92,11.89,104.8486,11.68,12.57,30.83,0,110.2,13.34,12.48,336.6
"2010-10-09 01:13:00",230847,4.354,11.44,6.625,1.217,14.36,104.8492,11.69,12.74,30.64,0,110.3,13.35,12.48,333.4
"2010-10-09 01:13:30",230848,3.772,3.204,5.084,0.64,12.15,104.8536,11.7,12.57,30.51,0,110.2,13.35,12.49,325.2
"2010-10-09 01:14:00",230849,4.972,20.66,14.29,1.269,14.12,104.8537,11.7,12.66,30.6,0,110.2,13.34,12.49,342.7
"2010-10-09 01:14:30",230850,5.277,27.17,8.04,1.306,15.78,104.8552,11.7,12.8,30.89,0,110.2,13.35,12.49,349.2
"2010-10-09 01:15:00",230851,3.198,21.4,10.34,1.653,14.37,104.8493,11.69,12.8,30.94,0,110.2,13.35,12.48,343.4
"2010-10-09 01:15:30",230852,3.066,28.7,6.694,1.171,12.44,104.8428,11.67,12.57,30.82,0,110.2,13.35,12.46,350.7
"2010-10-09 01:16:00",230853,2.768,25.54,3.716,0.311,10.96,104.8397,11.66,12.54,30.67,0,110.2,13.39,12.45,347.5
"2010-10-09 01:16:30",230854,2.457,25,3.846,0.192,11.03,104.841,11.67,12.55,30.78,0,110.2,13.39,12.46,347.0
"2010-10-09 01:17:00",230855,3.283,31.77,2.579,0.309,11.35,104.8424,11.67,12.55,30.72,0,110.2,13.39,12.46,353.8
"2010-10-09 01:17:30",230856,3.008,26.24,3.834,0.285,11.84,104.8413,11.67,12.62,30.85,0,110.2,13.39,12.46,348.2
"2010-10-09 01:18:00",230857,4.581,29.7,9.12,1.431,14.73,104.842,11.67,12.62,30.74,0,110.2,13.36,12.46,351.7
"2010-10-09 01:18:30",230858,3.841,27.99,8.05,1.322,13.86,104.8565,11.71,12.71,30.55,0,110.2,13.36,12.50,350.0
"2010-10-09 01:19:00",230859,5.569,35.56,6.841,1.267,15.85,104.8491,11.69,12.75,30.93,0,110.2,13.36,12.48,357.6
"2010-10-09 01:19:30",230860,5.609,34.85,6.842,1.268,15.97,104.8392,11.66,12.8,31.06,0,110.2,13.36,12.45,356.9
"2010-10-09 01:20:00",230861,4.39,25.2,8.03,1.52,13.02,104.8387,11.66,12.63,30.87,0,110.2,13.36,12.45,347.2
"2010-10-09 01:20:30",230862,3.176,20.64,3.848,0.568,11.41,104.8384,11.66,12.55,31.02,0,110.2,13.39,12.45,342.6
"2010-10-09 01:21:00",230863,3.679,20.35,2.536,0.46,11.19,104.8402,11.66,12.52,30.59,0,110.2,13.39,12.46,342.4
"2010-10-09 01:21:30",230864,3.548,19.05,4.46,0.66,11.57,104.8407,11.66,12.52,30.1,0,110.2,13.39,12.46,341.0
"2010-10-09 01:22:00",230865,3.89,16.43,3.247,0.328,12.05,104.8416,11.67,12.53,29.83,0,110.2,13.39,12.46,338.4
"2010-10-09 01:22:30",230866,4.957,16.49,3.852,0.851,13.12,104.856,11.7,12.55,29.75,0,110.2,13.36,12.50,338.5
"2010-10-09 01:23:00",230867,6.192,12.68,7.96,1.188,16.33,104.869,11.74,12.78,30.03,0,110.2,13.36,12.53,334.7
"2010-10-09 01:23:30",230868,6.858,19.49,8.88,1.083,16.46,104.8758,11.75,12.72,29.72,0,110.2,13.36,12.55,341.5
"2010-10-09 01:24:00",230869,5.189,22.86,7.178,1.456,15.13,104.8755,11.75,12.81,29.85,0,110.2,13.36,12.55,344.9
"2010-10-09 01:24:30",230870,3.276,26.29,4.897,1.439,12.56,104.8761,11.76,12.66,29.54,0,110.2,13.36,12.55,348.3
"2010-10-09 01:25:00",230871,2.768,22.78,5.302,0.346,11.01,104.8764,11.76,12.6,29.49,0,110.2,13.39,12.55,344.8
"2010-10-09 01:25:30",230872,2.465,21.13,4.015,0.37,11.1,104.8764,11.76,12.59,29.67,0,110.2,13.39,12.55,343.1
"2010-10-09 01:26:00",230873,3.459,23.26,1.917,0.376,11.46,104.8764,11.76,12.6,29.55,0,110.2,13.39,12.55,345.3
"2010-10-09 01:26:30",230874,3.683,22.34,3.292,0.279,11.88,104.8764,11.76,12.61,29.7,0,110.2,13.39,12.55,344.3
"2010-10-09 01:27:00",230875,4.981,23.46,3.956,1.289,14.12,104.8764,11.76,12.66,29.96,0,110.2,13.36,12.55,345.5
"2010-10-09 01:27:30",230876,5.492,24.84,7.186,1.335,15.39,104.8761,11.76,12.79,30.15,0,110.2,13.36,12.55,346.8
"2010-10-09 01:28:00",230877,5.562,25.49,6.371,1.192,15.92,104.8747,11.75,12.88,30.41,0,110.2,13.36,12.54,347.5
"2010-10-09 01:28:30",230878,5.479,24.23,6.905,1.434,15.86,104.8623,11.72,12.83,30.33,0,110.2,13.36,12.51,346.2
"2010-10-09 01:29:00",230879,3.722,21.47,5.509,1.014,12.84,104.8468,11.68,12.69,30.27,0,110.2,13.35,12.47,343.5
"2010-10-09 01:29:30",230880,2.886,16.03,3.769,0.408,11.18,104.8425,11.67,12.56,30.05,0,110.2,13.39,12.46,338.0
"2010-10-09 01:30:00",230881,2.748,11.36,6.521,0.548,11.17,104.8431,11.67,12.56,29.75,0,110.2,13.39,12.46,333.4
"2010-10-09 01:30:30",230882,3.631,354.8,2.901,0.425,11.52,104.8462,11.68,12.56,29.84,0,110.2,13.39,12.47,316.8
"2010-10-09 01:31:00",230883,4.164,353.2,2.38,0.698,11.98,104.8524,11.69,12.55,29.85,0,110.2,13.36,12.49,315.2
"2010-10-09 01:31:30",230884,4.485,355.1,6.687,1.092,13.68,104.8628,11.72,12.72,30.04,0,110.2,13.36,12.51,317.1
"2010-10-09 01:32:00",230885,5.732,345.5,8.46,1.095,13.33,104.8716,11.74,12.6,29.74,0,110.2,13.36,12.54,307.5
"2010-10-09 01:32:30",230886,6.876,349.1,7.634,1.35,16.01,104.8764,11.76,12.81,29.69,0,110.2,13.36,12.55,311.1
"2010-10-09 01:33:00",230887,7.057,348.7,8.97,1.167,16.39,104.8854,11.78,12.91,29.58,0,110.2,13.36,12.57,310.7
"2010-10-09 01:33:30",230888,6.277,342.6,9.41,1.247,14.36,104.9094,11.84,12.78,28.92,0,110.2,13.36,12.63,304.6
"2010-10-09 01:34:00",230889,2.711,350.3,12.02,1.176,11.7,104.9193,11.87,12.67,28.79,0,110.2,13.39,12.66,312.3
"2010-10-09 01:34:30",230890,2.586,359.2,12.92,1.045,11.49,104.9416,11.92,12.69,28.87,0,110.2,13.39,12.72,321.2
"2010-10-09 01:35:00",230891,2.879,26.35,10.04,0.681,11.52,104.9441,11.93,12.71,29.03,0,110.2,13.4,12.72,348.4
"2010-10-09 01:35:30",230892,3.539,41.91,2.484,0.135,11.68,104.941,11.92,12.7,29.54,0,110.2,13.4,12.72,3.9
"2010-10-09 01:36:00",230893,4.523,46.09,6.118,1.15,14.33,104.9134,11.85,12.87,29.63,0,110.2,13.37,12.64,8.1
"2010-10-09 01:36:30",230894,3.659,31.3,6.608,0.937,13.04,104.9103,11.84,12.74,29.61,0,110.2,13.37,12.64,353.3
"2010-10-09 01:37:00",230895,3.756,25.63,8.72,1.389,13.41,104.9103,11.84,12.78,29.75,0,110.2,13.37,12.64,347.6
"2010-10-09 01:37:30",230896,5.62,32.69,6.628,1.246,15,104.91,11.84,12.9,29.77,0,110.2,13.36,12.64,354.7
"2010-10-09 01:38:00",230897,5.704,32.97,7.049,1.347,14.95,104.91,11.84,12.82,29.54,0,110.2,13.37,12.64,355.0
"2010-10-09 01:38:30",230898,4.827,26.81,7.961,0.749,13.21,104.9052,11.83,12.84,29.56,0,110.2,13.36,12.62,348.8
"2010-10-09 01:39:00",230899,3.889,26.26,2.393,0.252,11.71,104.9091,11.84,12.67,29.18,0,110.2,13.4,12.63,348.3
"2010-10-09 01:39:30",230900,3.792,25.45,3.38,0.634,11.73,104.9103,11.84,12.67,29.1,0,110.2,13.4,12.64,347.5
"2010-10-09 01:40:00",230901,5.486,29.58,7.104,1.451,14.1,104.9103,11.84,12.82,29.61,0,110.2,13.37,12.64,351.6
"2010-10-09 01:40:30",230902,4.923,26.28,5.404,0.834,13.02,104.8961,11.81,12.83,29.69,0,110.2,13.37,12.60,348.3
"2010-10-09 01:41:00",230903,5.895,30.84,7.181,1.406,14.07,104.8767,11.76,12.69,29.69,0,110.2,13.37,12.55,352.8
"2010-10-09 01:41:30",230904,6.222,33.07,7.516,1.288,15.21,104.8764,11.76,12.8,29.79,0,110.2,13.37,12.55,355.1
"2010-10-09 01:42:00",230905,6.145,31.41,7.143,1.269,15.37,104.8764,11.76,12.9,29.8,0,110.2,13.37,12.55,353.4
"2010-10-09 01:42:30",230906,6.31,31.19,6.29,1.31,14.75,104.8764,11.76,12.75,29.31,0,110.2,13.37,12.55,353.2
"2010-10-09 01:43:00",230907,4.968,26.7,1.949,0.312,11.83,104.8764,11.76,12.65,29.2,0,110.2,13.4,12.55,348.7
"2010-10-09 01:43:30",230908,5.729,31.07,6.05,1.231,13.51,104.8764,11.76,12.7,29.31,0,110.2,13.36,12.55,353.1
"2010-10-09 01:44:00",230909,5.02,28.78,6.628,1.164,13.15,104.8764,11.76,12.79,29.49,0,110.2,13.36,12.55,350.8
"2010-10-09 01:44:30",230910,5.933,31.39,5.769,1.493,14.2,104.8764,11.76,12.67,29.37,0,110.2,13.36,12.55,353.4
"2010-10-09 01:45:00",230911,5.914,28.26,5.335,0.835,12.96,104.8764,11.76,12.77,29.28,0,110.2,13.36,12.55,350.3
"2010-10-09 01:45:30",230912,5.744,33.99,7.176,1.88,13.91,104.8764,11.76,12.66,29.17,0,110.2,13.36,12.55,356.0
"2010-10-09 01:46:00",230913,5.513,35.3,7.518,1.455,14.45,104.8767,11.76,12.76,29.16,0,110.2,13.36,12.55,357.3
"2010-10-09 01:46:30",230914,6.411,39.14,6.423,1.434,15.91,104.8959,11.81,12.9,29.13,0,110.2,13.36,12.60,1.1
"2010-10-09 01:47:00",230915,5.181,26.53,4.835,1.211,12.83,104.9097,11.84,12.67,28.87,0,110.2,13.36,12.63,348.5
"2010-10-09 01:47:30",230916,5.467,31.22,6.975,1.398,14.14,104.9114,11.85,12.79,28.86,0,110.2,13.36,12.64,353.2
"2010-10-09 01:48:00",230917,5.224,23.62,6.344,1.04,13.21,104.9351,11.91,12.87,28.95,0,110.2,13.36,12.70,345.6